Location: Caltech
(34.1382°N, 118.1253°W)
Time: 17:54:55
(UTC-08:00)

CZ-2C R/B - Visible Passes

Search period start: 03 December 2016 00:00
Search period end: 13 December 2016 00:00
Orbit: 669 x 784 km, 98.1° (Epoch: 02 December)

Date Brightness Start Highest point End Pass type
(mag) Time Alt. Az. Time Alt. Az. Time Alt. Az.
03 Dec 4.1 05:35:50 10° NNE 05:40:40 39° E 05:45:23 10° SSE visible
03 Dec 4.8 18:19:57 10° SSW 18:23:57 25° W 18:28:04 10° NW visible
04 Dec 5.7 04:50:22 10° ENE 04:52:24 12° E 04:54:25 10° ESE visible
04 Dec 2.6 17:30:58 10° S 17:35:52 82° WSW 17:40:58 10° NNW visible
05 Dec 3.9 05:38:15 10° NNE 05:43:07 41° E 05:47:51 10° SSE visible
05 Dec 4.9 18:22:28 10° SSW 18:26:23 24° W 18:30:25 10° NW visible
06 Dec 5.7 04:52:32 10° ENE 04:54:52 13° E 04:57:10 10° ESE visible
06 Dec 2.7 17:33:22 10° S 17:38:18 77° WSW 17:43:25 10° NNW visible
07 Dec 3.8 05:40:39 10° NNE 05:45:33 44° E 05:50:19 10° S visible
07 Dec 5.0 18:25:00 10° SW 18:28:50 22° W 18:32:47 10° NW visible
08 Dec 5.6 04:54:44 10° ENE 04:57:19 14° E 04:59:52 10° ESE visible
08 Dec 2.8 17:35:47 10° S 17:40:44 72° WSW 17:45:52 10° NNW visible
09 Dec 3.6 05:43:04 10° NNE 05:48:01 47° E 05:52:46 10° S visible
09 Dec 5.1 18:27:32 10° SW 18:31:18 21° W 18:35:08 10° NW visible
10 Dec 5.5 04:56:58 10° ENE 04:59:47 15° E 05:02:32 10° SE visible
10 Dec 2.9 17:38:12 10° S 17:43:10 67° W 17:48:18 10° NNW visible
11 Dec 3.5 05:45:29 10° NNE 05:50:26 50° E 05:55:13 10° S visible
11 Dec 5.2 18:30:06 10° SW 18:33:44 20° W 18:37:27 10° NW visible
12 Dec 5.5 04:59:14 10° NE 05:02:14 16° E 05:05:09 10° SE visible
12 Dec 3.0 17:40:38 10° S 17:45:36 63° WSW 17:50:44 10° NNW visible
